< Cyclone 200210 2003 Season Cyclone 200302 >
Cyclone 200301 (UNNAMED)
General InformationTrack Information on Google MapsDetailed Wind InformationList of All Images || ResourceGoogle EarthGE AnimationAtom FeedGeoJSON
Detalied Best Track (Time Zone = UTC)
Year Month Day Hour Lat. Long. Pressure (hPa) Wind (kt) Class Image Chart
2003 1 21 00 -12.4 125.3 1005 20 2 Image --
2003 1 21 06 -13.1 124.5 1004 20 2 Image --
2003 1 21 12 -13.6 123.6 1005 20 2 Image --
2003 1 21 18 -14.1 122.3 1005 20 2 Image --
2003 1 22 00 -14.4 121.0 1006 20 2 Image --
2003 1 22 06 -14.8 119.8 1004 20 2 Image --
2003 1 22 12 -15.2 119.2 1004 20 2 Image --
2003 1 22 18 -15.8 118.8 1004 20 2 Image --
2003 1 23 00 -16.3 118.5 1002 20 2 Image --
2003 1 23 06 -16.7 118.3 998 25 2 Image --
2003 1 23 12 -17.0 118.1 998 25 2 Image --
2003 1 23 18 -17.3 118.0 998 25 2 Image --
2003 1 24 00 -17.7 118.0 998 25 2 Image --
2003 1 24 06 -18.1 118.2 996 30 2 Image --
2003 1 24 12 -18.5 118.4 995 30 2 Image --
2003 1 24 15 -18.8 118.5 994 30 2 Image --
2003 1 24 18 -19.3 118.6 994 35 3 Image --
2003 1 24 21 -19.7 118.8 994 40 3 Image --
2003 1 25 00 -20.0 118.9 994 45 3 Image --
2003 1 25 03 -20.2 119.1 994 40 3 Image --
2003 1 25 06 -20.5 119.3 994 30 2 Image --
2003 1 25 09 -21.1 119.4 995 25 2 Image --
2003 1 25 12 -21.8 119.4 995 25 2 Image --
< Cyclone 200210 2003 Season Cyclone 200302 >

Help